EW9168 Weather Reports


time (UTC)temp
F
wind
direction
speed
knots
gust
knots
rain 1hr
in
rain 24hr
in
rain mn
in
humidity
%
barometer
mb
20260510205022 64 270 2.6 7.8 0.00 0.05 0.05 58 1011.4
20260510204022 64 203 2.6 7.8 0.00 0.05 0.05 60 1011.3
20260510203102 64 270 1.7 7.0 0.00 0.05 0.05 63 1011.3
20260510202022 64 225 2.6 8.7 0.00 0.05 0.05 62 1011.4
20260510201022 64 225 4.3 10.4 0.00 0.05 0.05 62 1011.5
20260510200019 64 270 3.5 9.6 0.00 0.05 0.05 67 1011.5
20260510195024 64 270 3.5 10.4 0.00 0.05 0.05 68 1011.5
20260510194022 63 270 3.5 7.8 0.00 0.05 0.05 69 1011.6
20260510193021 62 270 3.5 10.4 0.00 0.05 0.05 72 1011.6
20260510192022 61 270 2.6 7.0 0.00 0.05 0.05 73 1011.6
20260510191022 60 225 1.7 7.8 0.00 0.05 0.05 78 1011.6
20260510185018 60 225 0.9 4.3 0.00 0.05 0.05 83 1011.6
20260510184042 59 0.0 1.7 0.00 0.05 0.05 84 1011.5
20260510183022 60 0.0 2.6 0.00 0.06 0.05 82 1011.6
20260510182022 60 270 0.9 4.3 0.00 0.07 0.05 83 1011.7
20260510181022 60 270 0.9 3.5 0.00 0.07 0.05 85 1011.8
20260510180022 59 270 0.9 4.3 0.01 0.08 0.05 84 1011.8
20260510175019 59 270 0.9 5.2 0.02 0.09 0.05 86 1011.9
20260510174040 58 180 1.7 6.1 0.03 0.09 0.05 91 1011.9
20260510173022 56 203 0.9 5.2 0.03 0.09 0.05 93 1011.8
20260510172020 55 180 0.9 3.5 0.03 0.09 0.05 93 1011.9
20260510171022 55 225 0.9 5.2 0.03 0.09 0.05 92 1012.2
20260510170022 55 0.0 0.9 0.02 0.08 0.04 92 1012.0
20260510165021 56 0.0 0.9 0.01 0.07 0.03 91 1011.9
20260510164038 56 0.0 0.9 0.01 0.06 0.02 92 1011.9
20260510163018 56 0.0 0.9 0.02 0.06 0.02 92 1011.7
20260510162022 55 0.0 0.0 0.02 0.06 0.02 91 1011.6
20260510161022 55 0.0 1.7 0.02 0.06 0.02 92 1011.5
20260510160022 55 0.0 0.9 0.02 0.06 0.02 91 1011.5
20260510155022 56 0.0 1.7 0.02 0.07 0.02 90 1011.9
20260510154042 57 0.0 1.7 0.01 0.06 0.01 88 1011.9
20260510153019 57 0.0 2.6 0.00 0.06 0.00 85 1011.7
20260510152021 57 0.0 0.9 0.00 0.06 0.00 84 1011.4
20260510151022 57 203 0.9 4.3 0.00 0.06 0.00 84 1011.2
20260510150022 57 203 1.7 6.1 0.00 0.06 0.00 84 1010.8
20260510145022 57 203 1.7 5.2 0.00 0.06 0.00 85 1010.9
20260510144022 57 180 0.9 4.3 0.00 0.06 0.00 84 1011.0
20260510143042 58 158 1.7 7.0 0.00 0.06 0.00 84 1011.1
20260510142017 58 180 1.7 8.7 0.00 0.06 0.00 84 1011.4
20260510141042 57 180 1.7 7.0 0.00 0.06 0.00 85 1011.4
20260510140023 56 158 1.7 6.1 0.00 0.06 0.00 87 1011.4
20260510135022 55 158 2.6 7.0 0.00 0.06 0.00 90 1011.3
20260510134021 54 158 2.6 7.0 0.00 0.06 0.00 90 1011.4
20260510133022 54 180 1.7 5.2 0.00 0.06 0.00 91 1011.4
20260510132018 54 135 2.6 7.0 0.00 0.06 0.00 90 1011.1
20260510131038 54 113 2.6 7.0 0.00 0.06 0.00 90 1011.1
20260510130022 53 135 1.7 7.8 0.00 0.06 0.00 91 1011.2
20260510125022 52 135 1.7 4.3 0.00 0.06 0.00 92 1011.5
20260510124021 52 158 2.6 7.0 0.00 0.06 0.00 92 1011.4
20260510123022 52 158 2.6 7.0 0.00 0.06 0.00 93 1011.2
20260510122021 51 158 1.7 6.1 0.00 0.06 0.00 93 1011.4
20260510121018 51 158 0.9 4.3 0.00 0.06 0.00 93 1011.2
20260510120018 50 0.0 4.3 0.00 0.06 0.00 94 1011.0
20260510115021 50 113 2.6 6.1 0.00 0.06 0.00 94 1011.0
20260510114022 50 113 2.6 7.0 0.00 0.06 0.00 93 1010.8
20260510113022 50 113 2.6 7.0 0.00 0.06 0.00 93 1011.0
20260510112021 50 90 1.7 6.1 0.00 0.06 0.00 94 1010.7
20260510111022 50 113 0.9 3.5 0.00 0.06 0.00 94 1010.9
20260510110019 49 90 1.7 6.1 0.00 0.06 0.00 94 1010.7
20260510105019 49 135 1.7 7.0 0.00 0.06 0.00 94 1010.5
20260510104022 49 113 3.5 7.8 0.00 0.06 0.00 94 1010.6
20260510103022 49 113 3.5 7.0 0.00 0.06 0.00 95 1010.2
20260510102022 49 90 3.5 7.8 0.00 0.06 0.00 95 1010.1
20260510101025 49 90 1.7 7.0 0.00 0.06 0.00 95 1010.0
20260510100022 49 90 2.6 7.0 0.00 0.06 0.00 95 1009.8
20260510095018 49 113 3.5 9.6 0.00 0.06 0.00 95 1009.5
20260510094042 48 90 5.2 12.2 0.00 0.06 0.00 95 1009.4
20260510093021 48 113 5.2 11.3 0.00 0.06 0.00 95 1009.3
20260510092021 48 113 4.3 8.7 0.00 0.06 0.00 95 1009.0
20260510091043 48 113 3.5 7.0 0.00 0.06 0.00 94 1009.2
20260510090042 48 135 2.6 7.0 0.00 0.06 0.00 94 1009.5
20260510085021 48 113 3.5 7.0 0.00 0.06 0.00 94 1009.5
20260510084018 48 135 1.7 7.0 0.00 0.06 0.00 94 1009.8
20260510083021 48 135 1.7 4.3 0.00 0.06 0.00 94 1010.0
20260510082021 48 158 1.7 6.1 0.00 0.06 0.00 94 1010.1
20260510081022 48 113 2.6 7.8 0.00 0.06 0.00 94 1010.0
20260510080022 48 113 2.6 6.1 0.00 0.06 0.00 94 1009.8
20260510075022 47 113 1.7 7.0 0.00 0.06 0.00 95 1009.9
20260510074018 47 90 2.6 6.1 0.00 0.06 0.00 95 1009.7
20260510073018 47 90 2.6 7.0 0.00 0.06 0.00 94 1009.7
20260510072021 48 113 4.3 8.7 0.00 0.06 0.00 94 1009.7
20260510071022 48 135 3.5 8.7 0.00 0.06 0.00 94 1009.7
20260510070021 48 135 1.7 6.1 0.00 0.06 0.00 94 1010.1
20260510065042 48 113 3.5 8.7 0.00 0.06 0.00 94 1010.0
20260510064021 48 113 3.5 8.7 0.00 0.06 0.00 94 1010.0
20260510063018 47 113 4.3 8.7 0.00 0.06 0.00 94 1009.8
20260510062019 47 113 2.6 6.1 0.00 0.06 0.00 94 1010.1
20260510061022 47 113 3.5 9.6 0.00 0.06 0.00 94 1010.2
20260510060042 47 113 4.3 10.4 0.00 0.06 0.00 96 1010.2
20260510055022 46 113 4.3 9.6 0.00 0.06 0.00 95 1010.2
20260510054022 46 113 4.3 7.8 0.00 0.06 0.00 95 1010.4
20260510053025 46 90 3.5 7.8 0.00 0.06 0.00 95 1010.4
20260510052038 46 113 3.5 8.7 0.00 0.06 0.00 95 1010.3
20260510051019 46 113 4.3 9.6 0.00 0.06 0.00 95 1010.7
20260510050042 46 135 3.5 7.0 0.00 0.06 0.00 95 1010.8
20260510045042 46 135 4.3 9.6 0.00 0.06 0.00 95 1010.7
20260510044021 46 113 4.3 9.6 0.00 0.06 0.00 95 1010.5
20260510043020 46 135 4.3 9.6 0.00 0.06 0.00 95 1010.5
20260510042042 47 135 4.3 11.3 0.00 0.06 0.00 94 1010.6
20260510041018 47 135 4.3 10.4 0.00 0.06 0.00 94 1010.6
20260510040021 47 135 6.1 12.2 0.00 0.06 0.06 94 1010.5
20260510035021 47 135 5.2 10.4 0.00 0.06 0.06 94 1010.6
20260510034022 47 135 5.2 12.2 0.00 0.06 0.06 94 1010.5
20260510033021 47 113 6.1 12.2 0.00 0.06 0.06 93 1010.6
20260510032017 47 135 5.2 10.4 0.00 0.06 0.06 94 1010.7
20260510031017 46 113 5.2 11.3 0.00 0.06 0.06 94 1010.8
20260510030021 46 113 5.2 9.6 0.00 0.06 0.06 94 1010.9
20260510025021 46 135 4.3 9.6 0.00 0.06 0.06 93 1010.8
20260510024041 46 113 5.2 12.2 0.00 0.06 0.06 93 1011.0
20260510023022 46 135 5.2 9.6 0.00 0.06 0.06 93 1011.1
20260510022021 46 135 4.3 9.6 0.00 0.06 0.06 93 1011.2
20260510021017 46 113 5.2 11.3 0.00 0.06 0.06 93 1011.1
20260510020017 46 113 4.3 10.4 0.00 0.06 0.06 93 1011.2
20260510015041 46 113 4.3 9.6 0.00 0.06 0.06 93 1011.4
20260510014042 46 113 5.2 10.4 0.00 0.06 0.06 93 1011.3
20260510013021 46 113 4.3 9.6 0.00 0.06 0.06 93 1011.3
20260510012021 46 135 4.3 8.7 0.00 0.06 0.06 93 1011.3
20260510011021 46 113 5.2 9.6 0.00 0.06 0.06 93 1011.1
20260510010017 47 113 5.2 10.4 0.00 0.06 0.06 93 1011.2
20260510005021 47 135 4.3 8.7 0.00 0.06 0.06 92 1011.2
20260510004021 46 135 4.3 10.4 0.00 0.06 0.06 93 1010.9
20260510003021 46 113 4.3 8.7 0.00 0.06 0.06 93 1010.9
20260510002022 46 113 5.2 11.3 0.00 0.06 0.06 93 1010.8
20260510001019 46 113 4.3 8.7 0.00 0.06 0.06 93 1010.5
20260510000021 47 113 5.2 11.3 0.00 0.06 0.06 92 1010.4
20260509235017 47 113 2.6 7.0 0.00 0.06 0.06 92 1010.3
20260509234021 47 113 3.5 7.8 0.00 0.06 0.06 92 1010.0
20260509233021 47 113 3.5 9.6 0.00 0.06 0.06 92 1009.9
20260509232021 47 113 6.1 14.8 0.00 0.06 0.06 92 1009.9
20260509231021 46 113 6.1 13.0 0.00 0.06 0.06 92 1009.8
20260509230041 46 113 6.1 13.0 0.00 0.06 0.06 93 1009.8
20260509225022 46 113 7.0 15.6 0.00 0.06 0.06 93 1009.8
20260509224017 46 113 6.1 13.9 0.00 0.06 0.06 93 1009.9
20260509223021 47 113 4.3 9.6 0.00 0.06 0.06 94 1010.0
20260509222021 47 135 3.5 8.7 0.00 0.06 0.06 94 1010.1
20260509221021 47 113 2.6 7.8 0.00 0.06 0.06 94 1010.3
20260509220021 47 113 2.6 5.2 0.00 0.06 0.06 93 1010.4
20260509215022 47 113 4.3 9.6 0.00 0.06 0.06 92 1010.4
20260509214042 47 113 3.5 7.0 0.00 0.06 0.06 92 1010.6
20260509213017 47 180 1.7 7.0 0.00 0.06 0.06 92 1010.6
20260509212021 47 135 2.6 6.1 0.00 0.06 0.06 92 1010.5
20260509211021 47 180 2.6 6.1 0.00 0.06 0.06 93 1010.6
20260509210022 47 180 0.9 4.3 0.00 0.06 0.06 93 1010.5